W2CS Weather Reports


Display with metric or nautical units.
time (UTC)temp
F
wind
direction
speed
MPH
gust
MPH
rain 1hr
in
rain 24hr
in
rain mn
in
humidity
%
barometer
mb
20260507031043 53 265 1.0 3.0 0.00 0.00 0.00 94 1007.8
20260507030538 53 12 0.0 2.0 0.00 0.00 0.00 94 1007.7
20260507030052 53 12 0.0 2.0 0.00 0.00 0.00 94 1007.7
20260507025538 53 12 0.0 2.0 0.00 0.00 0.00 94 1007.7
20260507025039 53 12 0.0 2.0 0.00 0.00 0.00 94 1007.8
20260507024549 53 12 0.0 2.0 0.00 0.00 0.00 94 1007.7
20260507024040 53 12 0.0 2.0 0.00 0.00 0.00 94 1007.5
20260507023543 53 0 0.0 2.0 0.00 0.00 0.00 94 1007.6
20260507023049 53 12 0.0 2.0 0.00 0.00 0.00 94 1007.7
20260507022539 53 12 0.0 2.0 0.00 0.00 0.00 94 1007.8
20260507022038 53 12 0.0 2.0 0.00 0.00 0.00 94 1007.8
20260507021559 53 0 0.0 2.0 0.00 0.00 0.00 94 1007.8
20260507021039 53 0 0.0 2.0 0.00 0.00 0.00 94 1007.8
20260507020539 53 0 0.0 2.0 0.00 0.00 0.00 94 1007.9
20260507020048 53 0 0.0 2.0 0.00 0.00 0.00 94 1008.0
20260507015540 53 0 0.0 2.0 0.00 0.00 0.00 94 1008.1
20260507015039 53 12 0.0 2.0 0.00 0.00 0.00 94 1008.2
20260507014547 53 0 0.0 2.0 0.00 0.00 0.00 94 1008.2
20260507014039 53 0 0.0 2.0 0.00 0.00 0.00 94 1008.3
20260507013538 54 0 0.0 2.0 0.00 0.00 0.00 94 1008.3
20260507013047 53 0 0.0 2.0 0.00 0.00 0.00 94 1008.5
20260507012541 54 114 0.0 2.0 0.00 0.00 0.00 94 1008.5
20260507012038 54 0 1.0 2.0 0.00 0.00 0.00 94 1008.5
20260507011600 54 23 0.0 2.0 0.00 0.00 0.00 94 1008.8
20260507011039 54 23 1.0 2.0 0.00 0.00 0.00 94 1008.7
20260507010539 54 23 0.0 2.0 0.00 0.00 0.00 94 1008.7
20260507010048 54 75 1.0 4.0 0.00 0.00 0.00 94 1008.8
20260507005539 54 0 1.0 4.0 0.00 0.00 0.00 94 1008.7
20260507005041 54 1 0.0 3.0 0.00 0.00 0.00 94 1008.8
20260507004553 54 347 0.0 3.0 0.00 0.00 0.00 94 1008.7
20260507004040 54 14 0.0 2.0 0.00 0.00 0.00 94 1008.7
20260507003539 54 14 0.0 3.0 0.00 0.00 0.00 94 1008.7
20260507003053 54 13 1.0 4.0 0.00 0.00 0.00 94 1008.6
20260507002539 54 13 1.0 4.0 0.00 0.00 0.00 94 1008.6
20260507002038 54 325 0.0 3.0 0.00 0.00 0.00 94 1008.5
20260507001553 54 325 0.0 2.0 0.00 0.00 0.00 94 1008.5
20260507001038 54 324 0.0 2.0 0.00 0.00 0.00 94 1008.6
20260507000539 54 0 0.0 5.0 0.00 0.00 0.00 94 1008.6
20260507000054 54 0 0.0 5.0 0.00 0.00 0.00 93 1008.6
20260506235539 54 324 0.0 2.0 0.00 0.00 0.00 93 1008.5
20260506235038 54 11 0.0 2.0 0.00 0.00 0.00 93 1008.5
20260506234605 54 0 0.0 2.0 0.00 0.00 0.00 93 1008.5
20260506234039 54 10 0.0 2.0 0.00 0.00 0.00 93 1008.5
20260506233539 54 0 0.0 2.0 0.00 0.00 0.00 93 1008.4
20260506233052 54 10 0.0 2.0 0.00 0.00 0.00 94 1008.4
20260506232540 54 0 0.0 3.0 0.00 0.00 0.00 93 1008.2
20260506232038 54 0 0.0 3.0 0.00 0.00 0.00 93 1008.2
20260506231549 54 6 0.0 2.0 0.00 0.00 0.00 93 1008.5
20260506231040 54 6 0.0 2.0 0.00 0.00 0.00 93 1008.3
20260506230539 54 0 0.0 2.0 0.00 0.00 0.00 93 1008.3
20260506230056 54 0 0.0 2.0 0.00 0.00 0.00 93 1008.3
20260506225538 54 0 0.0 2.0 0.00 0.00 0.00 93 1008.3
20260506225038 54 70 0.0 3.0 0.00 0.00 0.00 93 1008.5
20260506224550 54 0 0.0 3.0 0.00 0.00 0.00 93 1008.5
20260506224039 54 0 0.0 3.0 0.00 0.00 0.00 92 1008.6
20260506223539 54 0 0.0 1.0 0.00 0.00 0.00 93 1008.6
20260506223056 54 0 0.0 1.0 0.00 0.00 0.00 93 1008.6
20260506222539 54 0 0.0 2.0 0.00 0.00 0.00 92 1008.9
20260506222043 54 0 0.0 2.0 0.00 0.00 0.00 92 1008.7
20260506221553 54 184 0.0 2.0 0.00 0.00 0.00 92 1009.0
20260506221113 55 0 0.0 2.0 0.00 0.00 0.00 92 1008.9
20260506220539 55 0 0.0 2.0 0.00 0.00 0.00 92 1009.0
20260506220053 55 184 0.0 3.0 0.00 0.00 0.00 92 1009.1
20260506215539 55 0 0.0 3.0 0.00 0.00 0.00 92 1009.3
20260506215038 55 184 0.0 3.0 0.00 0.00 0.00 91 1009.2
20260506214551 55 278 0.0 3.0 0.00 0.00 0.00 91 1009.2
20260506214040 55 0 0.0 2.0 0.00 0.00 0.00 91 1009.0
20260506213539 55 0 0.0 2.0 0.00 0.00 0.00 91 1009.1
20260506213052 56 0 0.0 2.0 0.00 0.00 0.00 91 1009.1
20260506212538 56 143 0.0 2.0 0.00 0.00 0.00 91 1009.2
20260506212039 56 0 0.0 2.0 0.00 0.00 0.00 90 1009.2
20260506211549 56 143 0.0 2.0 0.00 0.00 0.00 90 1009.3
20260506211038 56 0 0.0 2.0 0.00 0.00 0.00 91 1009.3
20260506210538 56 0 0.0 2.0 0.00 0.00 0.00 91 1009.3
20260506210048 57 104 0.0 2.0 0.00 0.00 0.00 91 1009.3
20260506205539 57 0 0.0 2.0 0.00 0.00 0.00 91 1009.3
20260506205040 57 267 0.0 2.0 0.00 0.00 0.00 90 1009.4
20260506204558 57 0 0.0 2.0 0.00 0.00 0.00 90 1009.5
20260506204043 57 0 0.0 2.0 0.00 0.00 0.00 90 1009.5
20260506203540 57 0 0.0 2.0 0.00 0.00 0.00 90 1009.5
20260506203053 57 0 0.0 3.0 0.00 0.00 0.00 90 1009.4
20260506202538 57 0 0.0 3.0 0.00 0.00 0.00 89 1009.4
20260506202040 57 0 0.0 3.0 0.00 0.00 0.00 89 1009.5
20260506201547 57 0 0.0 3.0 0.00 0.00 0.00 90 1009.5
20260506201040 58 0 0.0 3.0 0.00 0.00 0.00 90 1009.6
20260506200539 57 203 0.0 3.0 0.00 0.00 0.00 89 1009.6
20260506200106 57 269 0.0 3.0 0.00 0.00 0.00 88 1009.7
20260506195539 57 0 0.0 3.0 0.00 0.00 0.00 88 1009.8
20260506195039 58 196 0.0 6.0 0.00 0.00 0.00 88 1009.8
20260506194558 58 104 1.0 6.0 0.00 0.00 0.00 87 1010.1
20260506194038 58 282 0.0 2.0 0.00 0.00 0.00 86 1010.1
20260506193541 58 279 0.0 3.0 0.00 0.00 0.00 85 1010.1
20260506193050 59 279 0.0 3.0 0.00 0.00 0.00 85 1010.1
20260506192538 59 278 1.0 3.0 0.00 0.00 0.00 85 1010.2
20260506192041 59 357 0.0 3.0 0.00 0.00 0.00 85 1010.3
20260506191553 59 0 1.0 3.0 0.00 0.00 0.00 85 1010.3
20260506191037 60 341 0.0 3.0 0.00 0.00 0.00 85 1010.3
20260506190538 60 0 1.0 3.0 0.00 0.00 0.00 85 1010.3
20260506190048 60 242 0.0 3.0 0.00 0.00 0.00 85 1010.3
20260506185538 60 297 1.0 3.0 0.00 0.00 0.00 85 1010.3
20260506185041 60 19 0.0 3.0 0.00 0.00 0.00 84 1010.3
20260506184605 60 33 1.0 5.0 0.00 0.00 0.00 84 1010.3
20260506184038 61 324 1.0 5.0 0.00 0.00 0.00 83 1010.3
20260506183539 61 29 1.0 3.0 0.00 0.00 0.00 82 1010.4
20260506183103 61 14 1.0 3.0 0.00 0.00 0.00 83 1010.4
20260506182539 62 353 1.0 3.0 0.00 0.00 0.00 82 1010.7
20260506182038 62 50 0.0 3.0 0.00 0.00 0.00 83 1010.7
20260506181559 62 131 1.0 3.0 0.00 0.00 0.00 83 1010.6
20260506181040 62 18 1.0 5.0 0.00 0.00 0.00 83 1010.8
20260506180543 62 0 1.0 5.0 0.00 0.00 0.00 83 1010.8
20260506180055 62 240 0.0 5.0 0.00 0.00 0.00 82 1011.0
20260506175542 62 330 1.0 4.0 0.00 0.00 0.00 82 1011.0
20260506175040 63 126 0.0 4.0 0.00 0.00 0.00 81 1011.1
20260506174554 63 318 1.0 4.0 0.00 0.00 0.00 82 1011.2
20260506174039 63 0 1.0 2.0 0.00 0.00 0.00 81 1011.5
20260506173539 64 0 0.0 3.0 0.00 0.00 0.00 81 1011.5
20260506173055 64 280 1.0 3.0 0.00 0.00 0.00 80 1011.5
20260506172539 64 161 1.0 3.0 0.00 0.00 0.00 80 1011.4
20260506172039 64 181 1.0 4.0 0.00 0.00 0.00 81 1011.4
20260506171550 64 327 1.0 4.0 0.00 0.00 0.00 81 1011.5
20260506171039 64 37 1.0 3.0 0.00 0.00 0.00 80 1011.5
20260506170538 64 56 1.0 3.0 0.00 0.00 0.00 80 1011.5
20260506170053 64 307 1.0 5.0 0.00 0.00 0.00 80 1011.6
20260506165540 64 353 1.0 5.0 0.00 0.00 0.00 82 1011.7
20260506165040 64 0 1.0 4.0 0.00 0.00 0.00 82 1011.7
20260506164551 63 319 1.0 4.0 0.00 0.00 0.00 84 1011.9
20260506164038 62 160 1.0 4.0 0.00 0.00 0.00 83 1012.0
20260506163535 62 353 1.0 4.0 0.00 0.00 0.00 82 1011.9
20260506163055 62 21 1.0 4.0 0.00 0.00 0.00 83 1012.1
20260506162539 62 289 1.0 6.0 0.00 0.00 0.00 83 1012.2
20260506162040 62 0 0.0 6.0 0.00 0.00 0.00 83 1012.3
20260506161603 62 0 1.0 6.0 0.00 0.00 0.00 81 1012.2
20260506161039 63 80 1.0 4.0 0.00 0.00 0.00 80 1012.3
20260506160540 64 352 0.0 3.0 0.00 0.00 0.00 79 1012.4
20260506160056 64 149 1.0 4.0 0.00 0.00 0.00 79 1012.5
20260506155539 65 178 1.0 4.0 0.00 0.00 0.00 77 1012.7
20260506155037 66 0 0.0 3.0 0.00 0.00 0.00 77 1012.8
20260506154556 67 185 1.0 4.0 0.00 0.00 0.00 79 1012.6
20260506154044 66 320 1.0 4.0 0.00 0.00 0.00 80 1012.8
20260506153539 67 0 1.0 5.0 0.00 0.00 0.00 78 1012.8
20260506153045 66 271 1.0 5.0 0.00 0.00 0.00 80 1012.7
20260506152539 66 91 1.0 4.0 0.00 0.00 0.00 78 1012.9
20260506152043 66 304 1.0 3.0 0.00 0.00 0.00 79 1012.9
20260506151602 66 0 0.0 5.0 0.00 0.00 0.00 77 1013.1
20260506151038 66 236 1.0 5.0 0.00 0.00 0.00 80 1013.0
20260506150540 66 264 0.0 4.0 0.00 0.00 0.00 79 1013.1
20260506150049 66 165 1.0 4.0 0.00 0.00 0.00 81 1013.0
20260506145539 66 0 1.0 3.0 0.00 0.00 0.00 80 1012.9
20260506145038 65 0 0.0 3.0 0.00 0.00 0.00 78 1012.7
20260506144551 65 0 0.0 3.0 0.00 0.00 0.00 81 1013.0
20260506144041 65 0 0.0 2.0 0.00 0.00 0.00 82 1012.9
20260506143539 64 164 0.0 3.0 0.00 0.00 0.00 82 1013.0
20260506143056 64 164 0.0 3.0 0.00 0.00 0.00 81 1012.7
20260506142538 64 170 0.0 3.0 0.00 0.00 0.00 82 1012.8
20260506142038 64 89 0.0 5.0 0.00 0.00 0.00 83 1012.9
20260506141554 64 18 1.0 5.0 0.00 0.00 0.00 81 1012.7
20260506141039 64 226 0.0 3.0 0.00 0.00 0.00 83 1012.5
20260506140542 64 0 0.0 2.0 0.00 0.00 0.00 80 1012.6
20260506140104 64 326 1.0 3.0 0.00 0.00 0.00 80 1012.8
20260506135539 65 0 1.0 3.0 0.00 0.00 0.00 81 1012.8
20260506135039 65 148 1.0 3.0 0.00 0.00 0.00 80 1012.8
20260506134550 65 331 1.0 4.0 0.00 0.00 0.00 82 1012.9
20260506134039 65 255 1.0 4.0 0.00 0.00 0.00 81 1012.9
20260506133539 65 25 1.0 4.0 0.00 0.00 0.00 82 1013.0
20260506133051 64 50 1.0 3.0 0.00 0.00 0.00 82 1012.9
20260506132539 64 332 1.0 3.0 0.00 0.00 0.00 83 1012.8
20260506132043 64 6 1.0 5.0 0.00 0.00 0.00 82 1012.8
20260506131553 64 0 1.0 5.0 0.00 0.00 0.00 83 1012.7
20260506131040 63 104 1.0 4.0 0.00 0.00 0.00 83 1012.6
20260506130540 63 295 1.0 4.0 0.00 0.00 0.00 83 1012.6
20260506125539 63 106 0.0 3.0 0.00 0.00 0.00 84 1012.8
20260506125040 62 302 1.0 6.0 0.00 0.00 0.00 84 1012.7
20260506124550 62 131 0.0 6.0 0.00 0.00 0.00 85 1012.6
20260506124039 61 67 0.0 5.0 0.00 0.00 0.00 85 1012.7
20260506123539 61 85 0.0 3.0 0.00 0.00 0.00 86 1012.8
20260506123048 61 267 0.0 2.0 0.00 0.00 0.00 86 1012.9
20260506122539 60 173 0.0 2.0 0.00 0.00 0.00 86 1012.8
20260506122038 60 0 0.0 4.0 0.00 0.00 0.00 86 1012.8
20260506121547 60 0 0.0 4.0 0.00 0.00 0.00 87 1012.7
20260506121039 60 347 1.0 4.0 0.00 0.00 0.00 87 1012.7
20260506120539 59 0 1.0 4.0 0.00 0.00 0.00 87 1012.8
20260506120053 59 321 0.0 3.0 0.00 0.00 0.00 88 1012.8
20260506115539 58 0 1.0 3.0 0.00 0.00 0.00 89 1012.9
20260506115039 58 0 0.0 3.0 0.00 0.00 0.00 89 1013.0
20260506114548 57 0 1.0 3.0 0.00 0.00 0.00 90 1012.9
20260506114039 56 197 0.0 3.0 0.00 0.00 0.00 91 1013.0
20260506113539 56 92 1.0 3.0 0.00 0.00 0.00 91 1013.0
20260506113049 55 0 0.0 3.0 0.00 0.00 0.00 91 1013.0
20260506112540 55 0 0.0 3.0 0.00 0.00 0.00 90 1013.1
20260506112039 55 358 1.0 3.0 0.00 0.00 0.00 91 1013.0
20260506111549 55 351 0.0 3.0 0.00 0.00 0.00 91 1013.0
20260506111039 55 129 0.0 2.0 0.00 0.00 0.00 91 1012.9
20260506110539 55 322 0.0 3.0 0.00 0.00 0.00 92 1013.0
20260506110053 55 322 0.0 3.0 0.00 0.00 0.00 92 1012.9
20260506105539 55 8 0.0 4.0 0.00 0.00 0.00 93 1012.9
20260506105039 54 229 0.0 4.0 0.00 0.00 0.00 93 1013.0
20260506104610 54 18 0.0 3.0 0.00 0.00 0.00 93 1013.0
20260506104038 54 345 1.0 3.0 0.00 0.00 0.00 93 1013.0
20260506103539 53 11 0.0 2.0 0.00 0.00 0.00 93 1012.9
20260506103048 53 10 0.0 3.0 0.00 0.00 0.00 92 1013.1
20260506102540 53 10 0.0 3.0 0.00 0.00 0.00 92 1013.0
20260506102040 53 0 0.0 2.0 0.00 0.00 0.00 93 1012.7
20260506101554 53 164 0.0 2.0 0.00 0.00 0.00 93 1012.7
20260506101039 53 0 0.0 3.0 0.00 0.00 0.00 93 1012.9
20260506100539 53 0 0.0 3.0 0.00 0.00 0.00 93 1012.8
20260506100048 53 357 0.0 2.0 0.00 0.00 0.00 92 1012.8
20260506095543 53 204 0.0 2.0 0.00 0.00 0.00 92 1012.7
20260506095039 53 0 0.0 2.0 0.00 0.00 0.00 92 1012.7
20260506094556 52 204 0.0 2.0 0.00 0.00 0.00 92 1012.8
20260506094038 52 204 0.0 2.0 0.00 0.00 0.00 92 1012.8
20260506093542 53 0 0.0 3.0 0.00 0.00 0.00 92 1012.9
20260506093055 53 204 0.0 3.0 0.00 0.00 0.00 92 1012.8
20260506092542 53 204 0.0 3.0 0.00 0.00 0.00 92 1012.8
20260506092039 53 0 0.0 3.0 0.00 0.00 0.00 92 1012.9
20260506091547 53 0 0.0 2.0 0.00 0.00 0.00 92 1013.0
20260506091040 53 0 0.0 2.0 0.00 0.00 0.00 92 1013.1
20260506090537 53 0 0.0 2.0 0.00 0.00 0.00 92 1013.1
20260506090051 53 0 0.0 11.0 0.00 0.00 0.00 92 1013.1
20260506085536 54 0 0.0 11.0 0.00 0.00 0.00 92 1013.1
20260506085039 54 8 0.0 11.0 0.00 0.00 0.00 92 1013.2
20260506084552 54 0 0.0 2.0 0.00 0.00 0.00 92 1013.1
20260506084039 54 0 0.0 2.0 0.00 0.00 0.00 92 1013.1
20260506083539 54 0 0.0 2.0 0.00 0.00 0.00 92 1013.1
20260506083051 54 241 0.0 2.0 0.00 0.00 0.00 92 1013.2
20260506082542 54 0 0.0 3.0 0.00 0.00 0.00 92 1013.3
20260506082040 54 33 0.0 3.0 0.00 0.00 0.00 92 1013.2
20260506081550 54 210 0.0 2.0 0.00 0.00 0.00 93 1013.2
20260506081038 54 0 0.0 2.0 0.00 0.00 0.00 93 1013.2
20260506080537 54 0 0.0 2.0 0.00 0.00 0.00 93 1013.2
20260506073051 52 299 0.0 3.0 0.00 0.00 0.00 93 1013.2
20260506072537 52 160 0.0 1.0 0.00 0.00 0.00 93 1013.2
20260506072039 52 0 0.0 2.0 0.00 0.00 0.00 93 1013.2
20260506071604 51 0 0.0 2.0 0.00 0.00 0.00 92 1013.2
20260506071039 51 0 0.0 2.0 0.00 0.00 0.00 92 1013.3
20260506070538 51 0 0.0 1.0 0.00 0.00 0.00 92 1013.2
20260506062039 52 0 0.0 2.0 0.00 0.00 0.00 92 1013.2
20260506061546 52 0 0.0 2.0 0.00 0.00 0.00 92 1013.2
20260506061040 52 0 0.0 2.0 0.00 0.00 0.00 92 1013.3
20260506060538 52 0 0.0 3.0 0.00 0.00 0.00 92 1013.3
20260506051039 52 0 0.0 3.0 0.00 0.00 0.00 91 1013.8
20260506050538 52 0 0.0 3.0 0.00 0.00 0.00 91 1013.8
20260506045040 52 0 0.0 3.0 0.00 0.00 0.00 91 1013.8
20260506044559 52 0 0.0 3.0 0.00 0.00 0.00 91 1013.7
20260506044039 52 0 0.0 2.0 0.00 0.00 0.00 91 1013.8
20260506043543 52 0 0.0 3.0 0.00 0.00 0.00 91 1013.7
20260506043045 52 0 0.0 3.0 0.00 0.00 0.00 91 1013.8
20260506042540 52 0 0.0 3.0 0.00 0.00 0.00 91 1013.7
20260506042041 52 92 0.0 2.0 0.00 0.00 0.00 91 1013.6
20260506041603 52 0 0.0 3.0 0.00 0.00 0.00 91 1013.8
20260506041039 52 0 0.0 3.0 0.00 0.00 0.00 91 1013.8
20260506040535 52 0 0.0 3.0 0.00 0.00 0.00 91 1013.8
20260506040054 52 0 0.0 2.0 0.00 0.00 0.00 91 1013.8
20260506035542 52 172 0.0 2.0 0.00 0.00 0.00 91 1013.8
20260506035043 52 0 0.0 2.0 0.00 0.00 0.00 91 1013.7
20260506034549 52 224 0.0 2.0 0.00 0.00 0.00 91 1013.7
20260506034038 52 0 0.0 3.0 0.00 0.00 0.00 91 1013.8
20260506033542 52 0 0.0 3.0 0.00 0.00 0.00 91 1013.8
20260506033048 51 224 0.0 3.0 0.00 0.00 0.00 91 1013.8
20260506032539 51 0 0.0 3.0 0.00 0.00 0.00 91 1013.7
20260506032040 51 0 0.0 2.0 0.00 0.00 0.00 90 1013.6
20260506031555 51 0 0.0 2.0 0.00 0.00 0.00 90 1013.6